Airfield :
LOGIN :

Register | Disclaimer

   EN    FR    IT 

 










Legend :    VFR   Marginal VFR   IFR   Intensive IFR   Very Intensive IFR
Visi :
Ceiling :
>= 8 km
>= 3000ft
5 to 8 km
1000 to 3000 ft
1500m to 5 km
500 to 1000 ft
800 to 1500m
200 to 500 ft
< 800m
< 200 ft
Symbols :   Thunderstorms  Fog  Heavy snow  Heavy precipitations  Wind > 20 kt
SIGMETs :     Misc.  Thunderstorms  Icing  Turbulence  Mountain Waves  Volcanic Ashes






- Airport Elevation : 62 ft
- IATA code : TAN


GMTT - Tanger Ibn Batouta

CURRENT METAR :
  • 260130Z 23007KT 8000 SCT010 SCT015 22/20 Q1014 NOSIG

EXPIRED METARs :
  • 260100Z 22006KT 180V250 8000 BKN010 22/20 Q1014 NOSIG
  • 260030Z 23008KT 8000 BKN010 22/20 Q1014 NOSIG
  • 260000Z 23008KT 8000 BKN010 22/20 Q1015 NOSIG
  • 252330Z 23006KT 190V260 8000 BKN011 22/20 Q1015 NOSIG

TAF TAF GMTT
Valid from the 26 at 00:00 until the 27 at 06:00 UTC


252300Z 2600/2706 23008KT 8000 BKN010
PROB30
TEMPO 2603/2609 4000 DZ
BECMG 2608/2610 26008KT 9999 SCT026



MET'MAP, your aeronautical weather chart ! - Copyright ORBIFLY December 2007 - Disclaimer

ORBIFLY MET'MAP TEAM :

Programming & Development : Alexandra Zaïnal
Concept & original design : Baudouin d'Aumeries
Assistance for programming : Marc-Olivier Méhu
Technical & hardware support : Manuel Goepfert

Contact : metmap@orbifly.com




SOURCES & CREDITS :

   NOAA